Moses Lake, WA

8:36 AM PST on January 18, 2017 (GMT -0800)
Grant County International

Weather History for KMWH - March, 2012

Change the Weather History Date:

Saturday, March 31, 2012

  Actual Average Record
Temperature  
Mean Temperature 41 °F 47 °F  
Max Temperature 45 °F 59 °F 74 °F (2013)
Min Temperature 36 °F 35 °F 23 °F (2008)
Degree Days  
Heating Degree Days 24 18  
Month to date heating degree days 685 666  
Since 1 July heating degree days 5141 5172  
Cooling Degree Days 0 0  
Month to date cooling degree days 0 0  
Year to date cooling degree days 0 0  
Moisture  
Dew Point 36 °F    
Average Humidity 79    
Maximum Humidity 100    
Minimum Humidity 57    
Precipitation  
Precipitation 0.03 in 0.04 in 0.23 in (1998)
Month to date precipitation 0.81 0.78  
Year to date precipitation 1.93 2.72  
Sea Level Pressure  
Sea Level Pressure 29.55 in    
Wind  
Wind Speed 9 mph (NE)    
Max Wind Speed 20 mph    
Max Gust Speed 23 mph    
Visibility 10 miles    
Events Rain    
T = Trace of Precipitation, MM = Missing Value Source: NWS Daily Summary

Daily Weather History Graph

Daily Weather History Graph

Search for Another Location

Airport or City:

Trip Planner

Search our weather history database for the weather conditions in past years. The results will help you decide how hot, cold, wet, or windy it might be!

Date:

Astronomy

Mar. 31, 2012 Rise Set
Actual Time 6:37 AM PDT 7:26 PM PDT
Civil Twilight 6:06 AM PDT 7:57 PM PDT
Nautical Twilight 5:29 AM PDT 8:34 PM PDT
Astronomical Twilight 4:50 AM PDT 9:13 PM PDT
Moon 12:34 PM PDT (3/31) 3:02 AM PDT (3/31)
Length of Visible Light 13h 51m
Length of Day
12h 49m
First Quarter, 60% of the Moon is Illuminated
Mar 31
First Quarter
Apr 6
Full
Apr 13
Last Quarter
Apr 21
New
Apr 29
First Quarter

Hourly Weather History & Observations

Time (PDT) Temp. Windchill Dew Point Humidity Pressure Visibility Wind Dir Wind Speed Gust Speed Precip Events Conditions
12:52 AM 43.0 °F 39.5 °F 28.0 °F 56% 29.82 in 10.0 mi SW 5.8 mph - N/A   Overcast
1:52 AM 42.1 °F 38.4 °F 30.0 °F 62% 29.80 in 10.0 mi SSE 5.8 mph - N/A   Overcast
2:52 AM 41.0 °F 38.0 °F 33.1 °F 73% 29.78 in 10.0 mi SE 4.6 mph - N/A   Overcast
3:52 AM 39.9 °F 37.8 °F 36.0 °F 86% 29.62 in 10.0 mi SE 3.5 mph - N/A   Overcast
4:52 AM 41.0 °F 38.0 °F 36.0 °F 82% 29.74 in 10.0 mi ESE 4.6 mph - N/A   Overcast
5:52 AM 39.9 °F 35.1 °F 36.0 °F 86% 29.58 in 10.0 mi North 6.9 mph - N/A   Overcast
6:52 AM 39.0 °F 31.8 °F 34.0 °F 82% 29.55 in 10.0 mi North 11.5 mph - N/A   Overcast
7:52 AM 39.0 °F 32.8 °F 34.0 °F 82% 29.55 in 10.0 mi North 9.2 mph - 0.00 in Rain Light Rain
8:52 AM 39.9 °F 31.1 °F 36.0 °F 86% 29.50 in 10.0 mi North 17.3 mph - 0.00 in   Overcast
9:52 AM 42.1 °F 34.5 °F 36.0 °F 79% 29.49 in 10.0 mi North 15.0 mph - N/A   Overcast
10:50 AM 44.6 °F 37.8 °F 37.4 °F 76% 29.45 in 10.0 mi North 15.0 mph - N/A   Overcast
10:52 AM 45.0 °F 37.9 °F 37.0 °F 74% 29.47 in 10.0 mi NNE 16.1 mph - N/A   Overcast
11:52 AM 44.1 °F 36.2 °F 36.0 °F 73% 29.45 in 10.0 mi North 18.4 mph 21.9 mph N/A   Overcast
12:42 PM 42.8 °F 35.4 °F 35.6 °F 76% 29.44 in 10.0 mi North 15.0 mph 20.7 mph N/A   Overcast
12:52 PM 44.1 °F 37.4 °F 36.0 °F 73% 29.46 in 10.0 mi NNW 13.8 mph - N/A   Overcast
1:52 PM 43.0 °F 36.4 °F 35.1 °F 74% 29.48 in 10.0 mi NW 12.7 mph - 0.00 in Rain Light Rain
2:01 PM 42.8 °F 36.2 °F 35.6 °F 76% 29.46 in 10.0 mi NW 12.7 mph - 0.01 in Rain Light Rain
2:52 PM 42.1 °F 36.1 °F 36.0 °F 79% 29.49 in 10.0 mi NW 10.4 mph - 0.01 in   Overcast
3:52 PM 43.0 °F - 37.0 °F 80% 29.49 in 10.0 mi Calm Calm - 0.01 in   Overcast
4:52 PM 42.8 °F 38.6 °F 37.4 °F 81% 29.50 in 9.0 mi SSE 6.9 mph - N/A Rain Light Rain
5:52 PM 44.1 °F 38.1 °F 39.0 °F 82% 29.50 in 10.0 mi South 11.5 mph - 0.00 in   Scattered Clouds
6:52 PM 44.1 °F 37.4 °F 39.0 °F 82% 29.51 in 10.0 mi South 13.8 mph - N/A   Overcast
7:52 PM 43.0 °F 38.2 °F 39.0 °F 86% 29.53 in 10.0 mi SSW 8.1 mph - N/A   Scattered Clouds
8:52 PM 39.0 °F 35.7 °F 37.0 °F 93% 29.52 in 10.0 mi East 4.6 mph - N/A   Clear
9:52 PM 37.9 °F 33.5 °F 37.0 °F 97% 29.53 in 10.0 mi SE 5.8 mph - N/A   Clear
10:52 PM 36.0 °F 32.1 °F 35.1 °F 97% 29.55 in 4.0 mi ESE 4.6 mph - N/A   Clear
11:52 PM 37.0 °F - 36.0 °F 96% 29.57 in 10.0 mi Calm Calm - N/A   Mostly Cloudy